Baseball 板


LINE

芝加哥 小熊 https://pbs.twimg.com/media/HIOkaVNXkAAzxUn.jpg
HR RBI SB AVG OPS 1.Nico Hoerner 2B(R) 4 28 8 .273 .767 2.Moisés Ballesteros DH(L) 6 20 0 .257 .804 3.Alex Bregman 3B(R) 4 14 1 .239 .688 4.Ian Happ LF(S) 9 18 2 .228 .828 5.Seiya Suzuki RF(R) 7 16 0 .284 .918 6.Michael Busch 1B(L) 3 23 1 .235 .714 7.Carson Kelly C(R) 2 13 0 .283 .761 8.Pete Crow-Armstrong CF(L) 4 17 9 .240 .685 9.Dansby Swanson SS(R) 6 25 3 .197 .672 SP: Shota Imanaga (LHP) 2.28ERA, 47.1IP, 53K, 0.93WHIP 亞特蘭大 勇士 https://pbs.twimg.com/media/HIOSj-SXQAA6VSP.jpg
HR RBI SB AVG OPS 1.Mauricio Dubón LF(R) 2 23 0 .264 .722 2.Drake Baldwin DH(L) 10 32 1 .296 .889 3.Ozzie Albies 2B(S) 8 25 0 .301 .851 4.Matt Olson 1B(L) 14 37 1 .294 1.018 5.Austin Riley 3B(R) 6 25 3 .220 .667 6.Michael Harris II CF(L) 7 23 2 .311 .846 7.Ha-Seong Kim SS(R) 0 0 0 .000 .250 8.Sandy León C(S) - - - - - 9.José Azócar RF(R) 0 0 1 .000 .000 SP: JR Ritchie (RHP) 3.63ERA, 17.1IP, 13K, 1.50WHIP @Truist Park 07 : 15 Umpires: HP: Sean Barber. 1B: John Libka. 2B: James Hoye. 3B: Tyler Jones. Weather:76 degrees ( 24.44 C ), Clear. Wind:11 mph, R To L. ELTA-2 主播:林煒珽 / 球評:王啓恩 --



※ 發信站: 批踢踢實業坊(ptt.cc), 來自: 101.12.205.216 (臺灣)
※ 文章網址: https://webptt.com/m.aspx?n=bbs/Baseball/M.1778713213.A.643.html ※ 編輯: Yjizz (101.12.205.216 臺灣), 05/14/2026 07:20:24
1F:推 carlchang092: mike今天狀況不錯喔 05/14 07:41
2F:推 hanksadder: 今永好強 05/14 07:41
3F:→ Yjizz: 這勇者球迷 帽子好屌XD 05/14 07:56
4F:→ Yjizz: 不知道怎麼做的 好讚 05/14 07:57
5F:推 chucky: 三局沒掉分 05/14 08:01
6F:→ Yjizz: MIKE剛有一球 微妙表情 05/14 08:02
7F:→ Yjizz: RF AZOCAR NP! 05/14 08:04
8F:→ Yjizz: Baldwin #11 SOLO 0 : 1, 今永挨轟 05/14 08:16
9F:→ Yjizz: 撈了個低角壞球 幫QQ 05/14 08:18
10F:→ carlchang092: 界外轟嚇死 05/14 08:19
11F:→ carlchang092: 那是在打電話跟朋友抱怨沒接到嗎XD 05/14 08:20
12F:→ Yjizz: Riley 差點也炸 最後GO DP 05/14 08:21
13F:推 Daniel0712: 今永感覺要問天了 05/14 08:26
14F:推 gataomotw: 愛今永 05/14 08:30
15F:→ Yjizz: Hoerner 穿 平了 1 : 1 05/14 08:31
16F:推 carlchang092: 但就一分QQ 05/14 08:33
17F:推 gataomotw: 可惜 05/14 08:33
18F:推 Daniel0712: 熊熊最近打擊低潮 05/14 08:34
19F:→ Yjizz: 6局打完 今永 72-51NP 4H 1ER 6K 1HR 省~ 05/14 08:52
20F:推 carlchang092: 連續挑戰有準喔 05/14 08:55
21F:推 blanka: 這兩個三振都捕手幫忙的 好好玩 05/14 08:56
22F:推 kingwei520: Lee變得好厲害 05/14 08:57
23F:推 lampar5566: 小熊:還好買到對的日本投手== 05/14 09:04
24F:→ asd45654: 同樣今字輩兩樣情(X) 05/14 09:06
25F:推 carlchang092: Mike問天預備…… 05/14 09:07
26F:推 wa782653: 今永真的好強 05/14 09:08
27F:推 frank123ya: 還在熱 夭壽哩 05/14 09:12
28F:推 singlan30412: 同鄉真不幫忙 05/14 09:18
29F:→ Yjizz: AB single, Happ BB, 可惜星史吞K, 維持1:1僵持 05/14 09:18
30F:推 Daniel0712: 今永繼續投 05/14 09:19
31F:推 CaminoI: 這個傳球直傳進休息室…… 05/14 09:20
32F:→ Daniel0712: 不行了 被敲安 05/14 09:20
33F:推 hexokinase: 煮粥了 05/14 09:20
34F:→ Yjizz: 這 05/14 09:20
35F:→ CaminoI: 被牆面擋住 不然繼續滾 05/14 09:21
36F:→ Yjizz: Harris II 這球計安打 不知道會不會改 05/14 09:21
37F:推 Daniel0712: 換投但這era.. 05/14 09:21
38F:推 faratia: 戰歌 05/14 09:22
39F:→ CaminoI: 幫圓夢 首安出爐 05/14 09:23
40F:→ Yjizz: 斧頭幫 05/14 09:23
41F:→ CaminoI: 本季回歸的首安 05/14 09:23
42F:推 carlchang092: 拜託幫今永守住啊 05/14 09:26
43F:推 faratia: 死到有剩 05/14 09:27
44F:推 CaminoI: 回來一分 阿金死 05/14 09:27
45F:推 beefw: 爪太爛不得分都沒什麼唱戰歌 難得有機會聽原版的 05/14 09:27
46F:推 Daniel0712: 今永QQ 05/14 09:28
47F:→ CaminoI: 炸裂 05/14 09:29
48F:→ faratia: 炸裂 05/14 09:29
49F:→ CaminoI: 換投之後風雲變色 05/14 09:29
50F:→ carlchang092: 慘 幫今永QQ 05/14 09:29
51F:→ Yjizz: 接手的Maton 掉分, Yastrzemski double 05/14 09:29
52F:→ Yjizz: 不過有殺到一個1 : 2 05/14 09:29
53F:推 hexokinase: 太強了宇宙勇 05/14 09:29
54F:→ Yjizz: 今永本來無關勝負... 05/14 09:30
55F:推 Sabaurila: 慘 白痴隊友 準備敗投 05/14 09:30
56F:→ CaminoI: 聯盟第一真的猛 05/14 09:30
57F:推 Daniel0712: 熊打擊不行 牛棚又火牛 今永QQ 05/14 09:30
58F:→ Sabaurila: 這局有1分是他的 被Hoemer害死 05/14 09:30
59F:→ Yjizz: Dubón 放冷箭 ! 2分砲 #3! 05/14 09:30
60F:→ Yjizz: 1 : 4 勇者真的好強 05/14 09:31
61F:推 kingwei520: 要率先30勝了 05/14 09:31
62F:推 faratia: 舒服哥 05/14 09:35
63F:→ faratia: 這球太舒服了 05/14 09:36
64F:推 taiwan08: 舒服DP 05/14 09:36
65F:推 Daniel0712: 舒服DP 05/14 09:36
66F:推 Daniel0712: Iglesias 好可怕 救援超穩的 05/14 09:37
67F:推 Daniel0712: 連兩天關門成功 05/14 09:38
68F:→ Yjizz: 勇者30-13 今永QQ 05/14 09:39







like.gif 您可能會有興趣的文章
icon.png[問題/行為] 貓晚上進房間會不會有憋尿問題
icon.pngRe: [閒聊] 選了錯誤的女孩成為魔法少女 XDDDDDDDDDD
icon.png[正妹] 瑞典 一張
icon.png[心得] EMS高領長版毛衣.墨小樓MC1002
icon.png[分享] 丹龍隔熱紙GE55+33+22
icon.png[問題] 清洗洗衣機
icon.png[尋物] 窗台下的空間
icon.png[閒聊] 双極の女神1 木魔爵
icon.png[售車] 新竹 1997 march 1297cc 白色 四門
icon.png[討論] 能從照片感受到攝影者心情嗎
icon.png[狂賀] 賀賀賀賀 賀!島村卯月!總選舉NO.1
icon.png[難過] 羨慕白皮膚的女生
icon.png閱讀文章
icon.png[黑特]
icon.png[問題] SBK S1安裝於安全帽位置
icon.png[分享] 舊woo100絕版開箱!!
icon.pngRe: [無言] 關於小包衛生紙
icon.png[開箱] E5-2683V3 RX480Strix 快睿C1 簡單測試
icon.png[心得] 蒼の海賊龍 地獄 執行者16PT
icon.png[售車] 1999年Virage iO 1.8EXi
icon.png[心得] 挑戰33 LV10 獅子座pt solo
icon.png[閒聊] 手把手教你不被桶之新手主購教學
icon.png[分享] Civic Type R 量產版官方照無預警流出
icon.png[售車] Golf 4 2.0 銀色 自排
icon.png[出售] Graco提籃汽座(有底座)2000元誠可議
icon.png[問題] 請問補牙材質掉了還能再補嗎?(台中半年內
icon.png[問題] 44th 單曲 生寫竟然都給重複的啊啊!
icon.png[心得] 華南紅卡/icash 核卡
icon.png[問題] 拔牙矯正這樣正常嗎
icon.png[贈送] 老莫高業 初業 102年版
icon.png[情報] 三大行動支付 本季掀戰火
icon.png[寶寶] 博客來Amos水蠟筆5/1特價五折
icon.pngRe: [心得] 新鮮人一些面試分享
icon.png[心得] 蒼の海賊龍 地獄 麒麟25PT
icon.pngRe: [閒聊] (君の名は。雷慎入) 君名二創漫畫翻譯
icon.pngRe: [閒聊] OGN中場影片:失蹤人口局 (英文字幕)
icon.png[問題] 台灣大哥大4G訊號差
icon.png[出售] [全國]全新千尋侘草LED燈, 水草

請輸入看板名稱,例如:BuyTogether站內搜尋

TOP